This is the latest recevied weather packets stored in our database for station/object N4QD-13. If no packets are shown the sender has not sent any weather packets the latest 10 day(s).
| Time | Temp. | Humidity | Pressure | Rain* | Wind** | Luminosity | Snow |
|---|---|---|---|---|---|---|---|
| 1777591953 | 13.33° C | 57% | 1013.6 hPa | 0 mm | - | 20 W/m² | - |
| 1777591649 | 13.33° C | 56% | 1013.4 hPa | 0 mm | - | 24 W/m² | - |
| 1777591345 | 13.89° C | 55% | 1013.3 hPa | 0 mm | - | 26 W/m² | - |
| 1777591041 | 13.89° C | 54% | 1013.3 hPa | 0 mm | - | 28 W/m² | - |
| 1777590737 | 14.44° C | 54% | 1013.3 hPa | 0 mm | - | 34 W/m² | - |
| 1777590433 | 14.44° C | 54% | 1013.1 hPa | 0 mm | - | 35 W/m² | - |
| 1777590130 | 15° C | 54% | 1013.1 hPa | 0 mm | - | 39 W/m² | - |
| 1777589826 | 15° C | 53% | 1013.2 hPa | 0 mm | - | 46 W/m² | - |
| 1777589521 | 15° C | 53% | 1012.9 hPa | 0 mm | - | 74 W/m² | - |
| 1777589221 | 15° C | 52% | 1013 hPa | 0 mm | - | 88 W/m² | - |
| 1777588917 | 15.56° C | 51% | 1013.1 hPa | 0 mm | - | 97 W/m² | - |
| 1777588613 | 15.56° C | 50% | 1012.9 hPa | 0 mm | - | 115 W/m² | - |
| 1777588308 | 16.67° C | 50% | 1012.8 hPa | 0 mm | - | 124 W/m² | - |
| 1777588004 | 16.11° C | 49% | 1012.9 hPa | 0 mm | - | 139 W/m² | - |
| 1777587700 | 15.56° C | 50% | 1012.8 hPa | 0 mm | - | 158 W/m² | - |
| 1777587400 | 16.11° C | 47% | 1012.5 hPa | 0 mm | - | 167 W/m² | - |
| 1777587096 | 16.67° C | 48% | 1012.5 hPa | 0 mm | - | 189 W/m² | - |
| 1777586792 | 16.67° C | 47% | 1012.3 hPa | 0 mm | - | 201 W/m² | - |
| 1777586488 | 16.67° C | 45% | 1012.2 hPa | 0 mm | - | 235 W/m² | - |
| 1777586184 | 17.22° C | 44% | 1012.2 hPa | 0 mm | - | 261 W/m² | - |
| 1777585882 | 16.67° C | 44% | 1012.1 hPa | 0 mm | - | 275 W/m² | - |
| 1777585576 | 17.22° C | 44% | 1011.8 hPa | 0 mm | - | 300 W/m² | - |
| 1777585272 | 17.22° C | 44% | 1011.8 hPa | 0 mm | - | 345 W/m² | - |
| 1777584967 | 17.22° C | 46% | 1011.9 hPa | 0 mm | - | 329 W/m² | - |
| 1777584664 | 16.67° C | 46% | 1011.7 hPa | 0 mm | - | 356 W/m² | - |
* Rain latest hour (hover to see other rain measurements)
** Current wind speed in m/s (hover to see current wind gust speed)